Weather History for Big Piney, WY

Change the Weather History Date:

Monday, August 26, 2013

  Actual Average Record
Temperature  
Mean Temperature 61 °F 57 °F  
Max Temperature 73 °F 76 °F 88 °F (2010)
Min Temperature 49 °F 38 °F 19 °F (1992)
Degree Days  
Heating Degree Days 4 8  
Month to date heating degree days 69 132  
Since 1 June heating degree days 310 554  
Since 1 July heating degree days 93 249  
Cooling Degree Days 0 0  
Month to date cooling degree days 7 12  
Year to date cooling degree days 84 36  
Since 1 June cooling degree days 84 36  
Growing Degree Days 12 (Base 50)    
Moisture  
Dew Point 47 °F    
Average Humidity 61    
Maximum Humidity 86    
Minimum Humidity 35    
Precipitation  
Precipitation T in 0.01 in 0.25 in (1998)
Month to date precipitation 0.39 0.57  
Year to date precipitation 2.98 4.54  
Sea Level Pressure  
Sea Level Pressure 30.07 in    
Wind  
Wind Speed 5 mph (NNE)    
Max Wind Speed 24 mph    
Max Gust Speed 32 mph    
Visibility 10 miles    
Events Rain , Thunderstorm    
T = Trace of Precipitation, MM = Missing Value Source: NWS Daily Summary

Daily Weather History Graph

Daily Weather History Graph

Search for Another Location

Airport:

Trip Planner

Search our weather history database for the weather conditions in past years. The results will help you decide how hot, cold, wet, or windy it might be!

Date:

Astronomy

Aug. 26, 2013 Rise Set
Actual Time 6:39 AM MDT 8:04 PM MDT
Civil Twilight 6:09 AM MDT 8:33 PM MDT
Nautical Twilight 5:34 AM MDT 9:08 PM MDT
Astronomical Twilight 4:56 AM MDT 9:46 PM MDT
Moon 11:07 PM MDT (8/26) 12:53 PM MDT (8/26)
Length of Visible Light 14h 23m
Length of Day
13h 24m
Waning Gibbous, 66% of the Moon is Illuminated
Aug 26
Waning Gibbous
Aug 28
Last Quarter
Sep 5
New
Sep 12
First Quarter
Sep 19
Full

Hourly Weather History & Observations

Time (MDT) Temp. Dew Point Humidity Pressure Visibility Wind Dir Wind Speed Gust Speed Precip Events Conditions
12:53 AM 57.0 °F 46.9 °F 69% 29.99 in 10.0 mi ESE 3.5 mph - N/A   Clear
1:53 AM 57.0 °F 46.0 °F 67% 29.98 in 10.0 mi ESE 4.6 mph - N/A   Clear
2:53 AM 55.9 °F 46.0 °F 69% 29.99 in 10.0 mi East 4.6 mph - N/A   Clear
3:53 AM 53.1 °F 46.9 °F 80% 29.99 in 10.0 mi Calm Calm - N/A   Clear
4:53 AM 52.0 °F 46.9 °F 83% 29.99 in 10.0 mi NE 4.6 mph - N/A   Clear
5:53 AM 51.1 °F 46.0 °F 83% 30.03 in 10.0 mi North 4.6 mph - N/A   Clear
6:53 AM 50.0 °F 46.0 °F 86% 30.05 in 10.0 mi North 4.6 mph - N/A   Clear
7:53 AM 52.0 °F 46.9 °F 83% 30.08 in 10.0 mi Calm Calm - N/A   Clear
8:53 AM 57.0 °F 48.0 °F 72% 30.09 in 10.0 mi Calm Calm - N/A   Clear
9:46 AM 62.6 °F 46.4 °F 55% 30.34 in 10.0 mi ENE 4.6 mph - N/A   Partly Cloudy
9:53 AM 63.0 °F 46.9 °F 56% 30.07 in 10.0 mi East 4.6 mph - N/A   Clear
10:53 AM 66.0 °F 46.9 °F 50% 30.08 in 10.0 mi Variable 4.6 mph - N/A   Clear
11:53 AM 71.1 °F 46.9 °F 42% 30.05 in 10.0 mi Variable 4.6 mph - N/A   Clear
12:53 PM 72.0 °F 45.0 °F 38% 30.03 in 10.0 mi Calm Calm - N/A   Clear
1:53 PM 73.0 °F 44.1 °F 35% 30.02 in 10.0 mi Calm Calm - N/A   Mostly Cloudy
2:34 PM 68.0 °F 48.2 °F 49% 30.31 in 8.0 mi West 17.3 mph 23.0 mph 0.00 in Rain , Thunderstorm Light Thunderstorms and Rain
2:53 PM 62.1 °F 50.0 °F 65% 30.07 in 10.0 mi WNW 18.4 mph 26.5 mph 0.00 in Rain , Thunderstorm Light Thunderstorms and Rain
3:01 PM 62.6 °F 50.0 °F 63% 30.31 in 8.0 mi WNW 12.7 mph - 0.00 in Rain Light Rain
3:53 PM 70.0 °F 48.0 °F 46% 30.02 in 10.0 mi ESE 8.1 mph - 0.00 in   Overcast
4:53 PM 71.1 °F 46.0 °F 41% 30.02 in 10.0 mi SSW 15.0 mph - N/A   Scattered Clouds
5:53 PM 68.0 °F 46.9 °F 47% 30.04 in 10.0 mi SW 10.4 mph - N/A   Overcast
6:53 PM 66.0 °F 48.0 °F 52% 30.05 in 10.0 mi SSW 10.4 mph - N/A   Overcast
7:53 PM 61.0 °F 48.9 °F 64% 30.06 in 10.0 mi NE 11.5 mph - N/A   Mostly Cloudy
8:53 PM 59.0 °F 48.9 °F 69% 30.06 in 10.0 mi NNE 8.1 mph - N/A   Clear
9:53 PM 57.0 °F 50.0 °F 77% 30.06 in 10.0 mi NNW 6.9 mph - N/A   Partly Cloudy
10:53 PM 54.0 °F 48.0 °F 80% 30.06 in 10.0 mi North 3.5 mph - N/A   Clear
11:53 PM 55.0 °F 48.9 °F 80% 30.04 in 10.0 mi Calm Calm - N/A   Clear